This is the latest recevied weather packets stored in our database for station/object K4VEB. If no packets are shown the sender has not sent any weather packets the latest 10 day(s).
| Time | Temp. | Humidity | Pressure | Rain* | Wind** | Luminosity | Snow |
|---|---|---|---|---|---|---|---|
| 1777982578 | 18.89° C | 84% | 1016.3 hPa | 0 mm | - | 87 W/m² | - |
| 1777982276 | 17.78° C | 87% | 1016.2 hPa | 0 mm | - | 54 W/m² | - |
| 1777981974 | 17.78° C | 87% | 1016.2 hPa | 0 mm | - | 54 W/m² | - |
| 1777981671 | 17.78° C | 88% | 1015.9 hPa | 0 mm | - | 49 W/m² | - |
| 1777981064 | 16.67° C | 89% | 1015.9 hPa | 0 mm | - | 31 W/m² | - |
| 1777980761 | 16.67° C | 89% | 1016 hPa | 0 mm | - | 31 W/m² | - |
| 1777980457 | 16.67° C | 90% | 1015.9 hPa | 0 mm | - | 24 W/m² | - |
| 1777980155 | 16.67° C | 90% | 1016 hPa | 0 mm | - | 24 W/m² | - |
| 1777979855 | 16.67° C | 90% | 1015.9 hPa | 0 mm | - | 22 W/m² | - |
| 1777979551 | 16.67° C | 90% | 1015.9 hPa | 0 mm | - | 18 W/m² | - |
| 1777979247 | 16.67° C | 90% | 1015.6 hPa | 0 mm | - | 17 W/m² | - |
| 1777978945 | 16.11° C | 91% | 1015.6 hPa | 0 mm | - | 14 W/m² | - |
| 1777978641 | 16.11° C | 91% | 1015.4 hPa | 0 mm | - | 10 W/m² | - |
| 1777978337 | 16.11° C | 91% | 1015.2 hPa | 0 mm | - | 3 W/m² | - |
| 1777978034 | 16.11° C | 91% | 1015.2 hPa | 0 mm | - | 3 W/m² | - |
| 1777977731 | 16.11° C | 91% | 1015.1 hPa | 0 mm | - | 0 W/m² | - |
| 1777977427 | 16.11° C | 91% | 1015.3 hPa | 0 mm | - | 0 W/m² | - |
| 1777977125 | 16.11° C | 91% | 1015.2 hPa | 0 mm | - | 0 W/m² | - |
| 1777976822 | 16.11° C | 91% | 1015.1 hPa | 0 mm | - | 0 W/m² | - |
| 1777976520 | 16.11° C | 91% | 1015.2 hPa | 0 mm | - | 0 W/m² | - |
| 1777976219 | 16.11° C | 92% | 1015.1 hPa | 0 mm | - | 0 W/m² | - |
| 1777975914 | 16.11° C | 92% | 1015 hPa | 0 mm | - | 0 W/m² | - |
| 1777975610 | 16.11° C | 92% | 1015.2 hPa | 0 mm | - | 0 W/m² | - |
| 1777975308 | 16.11° C | 91% | 1015.3 hPa | 0 mm | - | 0 W/m² | - |
| 1777975003 | 16.11° C | 91% | 1015.1 hPa | 0 mm | - | 0 W/m² | - |
* Rain latest hour (hover to see other rain measurements)
** Current wind speed in m/s (hover to see current wind gust speed)